Terug naar catalogus

STARLINK-37856

ActiefCommunicatieSSO
NORAD 69491·PAYLOAD·🇺🇸 United States

Gelanceerd Jun 11, 2026 vanaf Vandenberg Space Force Base

Loading…

Volgende Passages (komende 24 uur)

TLE

VersSource: CelesTrak SupGP

Epoch: Sep 15, 2026, 02:56 UTC

1 69491C 26131P   26258.12270833 -.00043442  00000+0 -13486-2 0  2581
2 69491  97.2834 279.0837 0001148  90.2910 306.7167 15.33459541    16

Volg STARLINK-37856 in realtime met AllMySat

Download on the App Store